GW2273 Weather Reports


time (UTC)temp
F
wind
direction
speed
knots
gust
knots
rain 1hr
in
rain 24hr
in
rain mn
in
humidity
%
barometer
mb
20260906215024 98 110 7.0 12.2 0.00 0.00 0.00 32 1011.9
20260906214503 97 115 7.8 15.6 0.00 0.00 0.00 32 1011.9
20260906214003 98 121 7.8 15.6 0.00 0.00 0.00 32 1011.9
20260906213503 98 118 7.8 13.9 0.00 0.00 0.00 32 1011.9
20260906213003 98 111 8.7 14.8 0.00 0.00 0.00 32 1011.9
20260906212503 98 107 7.8 14.8 0.00 0.00 0.00 32 1011.9
20260906212003 98 100 7.8 13.0 0.00 0.00 0.00 33 1012.0
20260906211524 98 119 8.7 15.6 0.00 0.00 0.00 32 1012.0
20260906211003 98 123 8.7 15.6 0.00 0.00 0.00 33 1012.3
20260906210503 97 108 7.8 13.9 0.00 0.00 0.00 33 1012.3
20260906210003 97 112 7.0 12.2 0.00 0.00 0.00 33 1012.3
20260906205524 97 113 7.0 14.8 0.00 0.00 0.00 33 1012.5
20260906205003 98 120 7.0 14.8 0.00 0.00 0.00 33 1012.5
20260906204503 98 117 7.0 13.0 0.00 0.00 0.00 33 1012.6
20260906204003 98 106 7.8 13.9 0.00 0.00 0.00 34 1012.8
20260906203503 98 108 7.0 13.9 0.00 0.00 0.00 34 1012.8
20260906203003 98 122 7.0 14.8 0.00 0.00 0.00 34 1012.7
20260906202503 98 121 7.8 15.6 0.00 0.00 0.00 34 1012.9
20260906202003 97 106 7.0 15.6 0.00 0.00 0.00 35 1012.8
20260906201503 97 113 7.0 13.0 0.00 0.00 0.00 35 1012.8
20260906201024 97 126 7.0 12.2 0.00 0.00 0.00 36 1012.9
20260906200503 96 116 5.2 11.3 0.00 0.00 0.00 35 1013.1
20260906200003 96 108 5.2 9.6 0.00 0.00 0.00 36 1013.0
20260906195503 97 107 5.2 10.4 0.00 0.00 0.00 36 1013.1
20260906195003 97 128 6.1 10.4 0.00 0.00 0.00 35 1013.2
20260906194503 97 156 5.2 10.4 0.00 0.00 0.00 36 1013.3
20260906194003 97 151 6.1 11.3 0.00 0.00 0.00 36 1013.3
20260906193503 97 137 7.0 11.3 0.00 0.00 0.00 36 1013.4
20260906193003 98 117 7.0 13.0 0.00 0.00 0.00 35 1013.6
20260906192503 97 98 6.1 13.0 0.00 0.00 0.00 36 1013.6
20260906192003 97 105 5.2 12.2 0.00 0.00 0.00 37 1013.6
20260906191503 97 128 4.3 12.2 0.00 0.00 0.00 37 1013.6
20260906191003 96 136 4.3 14.8 0.00 0.00 0.00 37 1013.5
20260906190503 96 117 6.1 14.8 0.00 0.00 0.00 36 1013.8
20260906190003 96 100 7.0 13.0 0.00 0.00 0.00 37 1013.8
20260906185503 96 128 7.0 13.0 0.00 0.00 0.00 38 1013.9
20260906185003 96 161 7.0 13.0 0.00 0.00 0.00 38 1013.9
20260906184524 96 131 6.1 13.0 0.00 0.00 0.00 38 1014.0
20260906184003 95 110 7.0 13.9 0.00 0.00 0.00 38 1014.1
20260906183524 96 127 7.8 13.9 0.00 0.00 0.00 37 1014.2
20260906183003 96 141 7.0 13.9 0.00 0.00 0.00 37 1014.3
20260906182503 95 124 3.5 12.2 0.00 0.00 0.00 38 1014.3
20260906182003 95 84 3.5 8.7 0.00 0.00 0.00 39 1014.5
20260906181524 95 90 5.2 9.6 0.00 0.00 0.00 39 1014.6
20260906181003 96 88 5.2 9.6 0.00 0.00 0.00 38 1014.6
20260906180503 96 82 4.3 12.2 0.00 0.00 0.00 38 1014.7
20260906180003 95 89 5.2 12.2 0.00 0.00 0.00 39 1014.7
20260906175503 95 134 5.2 11.3 0.00 0.00 0.00 39 1014.7
20260906175024 95 180 5.2 14.8 0.00 0.00 0.00 39 1014.8
20260906174503 94 168 6.1 14.8 0.00 0.00 0.00 39 1014.9
20260906174003 94 134 5.2 12.2 0.00 0.00 0.00 39 1015.0
20260906173503 94 108 6.1 12.2 0.00 0.00 0.00 39 1015.0
20260906173003 94 123 7.0 13.0 0.00 0.00 0.00 39 1015.2
20260906172503 94 154 5.2 13.0 0.00 0.00 0.00 39 1015.1
20260906172024 94 125 3.5 11.3 0.00 0.00 0.00 39 1015.2
20260906171503 94 113 3.5 11.3 0.00 0.00 0.00 39 1015.2
20260906171003 94 103 4.3 8.7 0.00 0.00 0.00 39 1015.2
20260906170503 94 89 5.2 13.0 0.00 0.00 0.00 40 1015.5
20260906170024 94 105 5.2 13.0 0.00 0.00 0.00 39 1015.5
20260906165503 94 124 3.5 8.7 0.00 0.00 0.00 40 1015.6
20260906165024 94 145 2.6 7.8 0.00 0.00 0.00 40 1015.7
20260906164524 94 152 4.3 11.3 0.00 0.00 0.00 40 1015.7
20260906164003 93 134 4.3 11.3 0.00 0.00 0.00 41 1015.7
20260906163524 93 145 3.5 9.6 0.00 0.00 0.00 41 1015.7
20260906163003 93 182 2.6 7.8 0.00 0.00 0.00 41 1015.7
20260906162503 93 211 1.7 7.8 0.00 0.00 0.00 41 1015.7
20260906162003 92 195 2.6 5.2 0.00 0.00 0.00 42 1015.8
20260906161503 92 166 3.5 7.0 0.00 0.00 0.00 42 1015.7
20260906161024 92 159 2.6 7.0 0.00 0.00 0.00 42 1015.7
20260906160503 93 153 0.9 6.1 0.00 0.00 0.00 43 1015.6
20260906160003 92 141 1.7 4.3 0.00 0.00 0.00 43 1015.6
20260906155524 92 140 0.9 3.5 0.00 0.00 0.00 44 1015.6
20260906155024 92 162 0.9 4.3 0.00 0.00 0.00 44 1015.6
20260906154503 91 174 1.7 5.2 0.00 0.00 0.00 45 1015.5
20260906154024 90 172 2.6 6.1 0.00 0.00 0.00 45 1015.5
20260906153503 90 175 2.6 7.0 0.00 0.00 0.00 46 1015.6
20260906153003 90 178 2.6 7.0 0.00 0.00 0.00 45 1015.5
20260906152503 89 166 2.6 6.1 0.00 0.00 0.00 47 1015.5
20260906152003 89 153 2.6 6.1 0.00 0.00 0.00 48 1015.3
20260906151504 88 166 3.5 6.1 0.00 0.00 0.00 48 1015.4
20260906151003 87 173 3.5 6.1 0.00 0.00 0.00 49 1015.4
20260906150503 86 163 4.3 7.8 0.00 0.00 0.00 50 1015.3
20260906150024 86 165 4.3 7.8 0.00 0.00 0.00 51 1015.4
20260906145503 85 163 5.2 7.8 0.00 0.00 0.00 52 1015.4
20260906145024 84 154 5.2 8.7 0.00 0.00 0.00 52 1015.5
20260906144503 84 149 5.2 10.4 0.00 0.00 0.00 53 1015.5
20260906144024 83 150 5.2 10.4 0.00 0.00 0.00 55 1015.5
20260906143503 82 159 6.1 10.4 0.00 0.00 0.00 57 1015.5
20260906143003 81 160 5.2 10.4 0.00 0.00 0.00 57 1015.5
20260906142503 81 153 3.5 7.8 0.00 0.00 0.00 58 1015.4
20260906142003 80 151 4.3 7.0 0.00 0.00 0.00 58 1015.5
20260906141503 80 150 4.3 7.0 0.00 0.00 0.00 58 1015.5
20260906141003 80 148 3.5 7.0 0.00 0.00 0.00 59 1015.5
20260906140524 80 154 3.5 7.0 0.00 0.00 0.00 59 1015.3
20260906140024 79 157 3.5 5.2 0.00 0.00 0.00 60 1015.3
20260906135503 79 151 3.5 5.2 0.00 0.00 0.00 61 1015.3
20260906135003 79 145 2.6 5.2 0.00 0.00 0.00 61 1015.2
20260906134503 78 143 2.6 5.2 0.00 0.00 0.00 62 1015.2
20260906134024 78 143 2.6 5.2 0.00 0.00 0.00 62 1015.1
20260906133503 78 144 2.6 5.2 0.00 0.00 0.00 62 1015.1
20260906133024 78 144 2.6 5.2 0.00 0.00 0.00 62 1015.2
20260906132524 78 144 2.6 5.2 0.00 0.00 0.00 62 1015.1
20260906132024 78 153 3.5 5.2 0.00 0.00 0.00 61 1015.1
20260906131524 78 159 3.5 5.2 0.00 0.00 0.00 60 1015.1
20260906131003 78 159 2.6 5.2 0.00 0.00 0.00 60 1014.9
20260906130503 78 159 1.7 3.5 0.00 0.00 0.00 60 1014.8
20260906130003 77 159 1.7 3.5 0.00 0.00 0.00 61 1014.7
20260906125503 77 159 1.7 4.3 0.00 0.00 0.00 61 1014.6
20260906125003 76 159 1.7 4.3 0.00 0.00 0.00 62 1014.6
20260906124524 76 159 1.7 3.5 0.00 0.00 0.00 62 1014.5
20260906124003 76 159 0.9 3.5 0.00 0.00 0.00 62 1014.5
20260906123503 76 159 0.9 3.5 0.00 0.00 0.00 62 1014.4
20260906123003 76 159 1.7 3.5 0.00 0.00 0.00 62 1014.3
20260906122524 76 159 1.7 4.3 0.00 0.00 0.00 62 1014.4
20260906122003 76 159 3.5 6.1 0.00 0.00 0.00 62 1014.4
20260906121524 76 159 4.3 6.1 0.00 0.00 0.00 62 1014.4
20260906121003 76 160 5.2 7.0 0.00 0.00 0.00 62 1014.4
20260906120524 76 162 5.2 7.0 0.00 0.00 0.00 61 1014.3
20260906120003 76 163 4.3 7.0 0.00 0.00 0.00 61 1014.2
20260906115503 76 164 3.5 5.2 0.00 0.00 0.00 61 1014.1
20260906115003 76 164 3.5 5.2 0.00 0.00 0.00 61 1014.1
20260906114524 76 164 4.3 5.2 0.00 0.00 0.00 60 1014.0
20260906114024 77 164 4.3 5.2 0.00 0.00 0.00 60 1013.8
20260906113503 77 163 3.5 5.2 0.00 0.00 0.00 60 1013.9
20260906113003 77 163 3.5 5.2 0.00 0.00 0.00 60 1013.9
20260906112503 77 163 3.5 5.2 0.00 0.00 0.00 60 1013.9
20260906112003 77 163 3.5 5.2 0.00 0.00 0.00 60 1013.9
20260906111503 77 163 3.5 5.2 0.00 0.00 0.00 60 1013.8
20260906111003 77 163 3.5 5.2 0.00 0.00 0.00 60 1013.6
20260906110503 77 163 2.6 4.3 0.00 0.00 0.00 60 1013.6
20260906110003 77 163 1.7 4.3 0.00 0.00 0.00 60 1013.5
20260906105503 77 163 2.6 4.3 0.00 0.00 0.00 60 1013.5
20260906105003 77 163 2.6 4.3 0.00 0.00 0.00 59 1013.6
20260906104503 77 163 2.6 4.3 0.00 0.00 0.00 59 1013.5
20260906104003 77 163 2.6 4.3 0.00 0.00 0.00 59 1013.4
20260906103503 77 163 3.5 5.2 0.00 0.00 0.00 59 1013.5
20260906103003 77 163 3.5 5.2 0.00 0.00 0.00 58 1013.4
20260906102503 78 163 3.5 5.2 0.00 0.00 0.00 58 1013.4
20260906102003 78 163 3.5 5.2 0.00 0.00 0.00 58 1013.5
20260906101503 78 163 3.5 5.2 0.00 0.00 0.00 58 1013.5
20260906101003 78 161 3.5 5.2 0.00 0.00 0.00 57 1013.6
20260906100503 78 158 4.3 6.1 0.00 0.00 0.00 57 1013.5
20260906100024 78 159 4.3 7.8 0.00 0.00 0.00 57 1013.5
20260906095503 78 161 4.3 7.8 0.00 0.00 0.00 57 1013.4
20260906095003 78 162 3.5 5.2 0.00 0.00 0.00 57 1013.4
20260906094503 78 162 3.5 5.2 0.00 0.00 0.00 57 1013.5
20260906094003 78 162 2.6 4.3 0.00 0.00 0.00 57 1013.5
20260906093503 78 162 2.6 4.3 0.00 0.00 0.00 56 1013.4
20260906093024 78 162 2.6 4.3 0.00 0.00 0.00 56 1013.4
20260906092503 79 162 3.5 4.3 0.00 0.00 0.00 56 1013.3
20260906092003 79 162 2.6 4.3 0.00 0.00 0.00 56 1013.3
20260906091503 79 162 3.5 4.3 0.00 0.00 0.00 56 1013.2
20260906091003 79 162 3.5 4.3 0.00 0.00 0.00 55 1013.0
20260906090503 79 163 3.5 5.2 0.00 0.00 0.00 55 1013.1
20260906090003 79 168 3.5 6.1 0.00 0.00 0.00 55 1013.2
20260906085503 80 165 4.3 7.0 0.00 0.00 0.00 55 1013.1
20260906085003 80 159 4.3 7.0 0.00 0.00 0.00 55 1013.1
20260906084503 80 157 4.3 7.0 0.00 0.00 0.00 55 1013.1
20260906084003 80 154 3.5 7.0 0.00 0.00 0.00 55 1013.0
20260906083503 80 155 3.5 6.1 0.00 0.00 0.00 55 1013.1
20260906083003 80 159 4.3 6.1 0.00 0.00 0.00 54 1013.1
20260906082524 80 158 4.3 7.8 0.00 0.00 0.00 54 1013.0
20260906082003 80 159 4.3 7.8 0.00 0.00 0.00 54 1013.0
20260906081503 80 161 4.3 7.0 0.00 0.00 0.00 53 1013.1
20260906081003 80 159 4.3 7.0 0.00 0.00 0.00 53 1013.3
20260906080503 81 157 4.3 7.0 0.00 0.00 0.00 53 1013.2
20260906080003 81 156 4.3 7.0 0.00 0.00 0.00 53 1013.2
20260906075503 81 153 4.3 6.1 0.00 0.00 0.00 52 1013.3
20260906075003 81 143 3.5 6.1 0.00 0.00 0.00 52 1013.4
20260906074524 81 137 3.5 6.1 0.00 0.00 0.00 52 1013.3
20260906074024 82 149 3.5 5.2 0.00 0.00 0.00 52 1013.3
20260906073503 82 152 3.5 6.1 0.00 0.00 0.00 51 1013.1
20260906073003 82 146 3.5 6.1 0.00 0.00 0.00 51 1013.1
20260906072503 82 150 3.5 6.1 0.00 0.00 0.00 51 1013.1
20260906072024 82 155 4.3 6.1 0.00 0.00 0.00 51 1013.2
20260906071503 82 155 4.3 7.8 0.00 0.00 0.00 51 1013.1
20260906071003 82 156 4.3 7.8 0.00 0.00 0.00 51 1013.2
20260906070503 82 157 4.3 8.7 0.00 0.00 0.00 50 1013.1
20260906070003 83 157 5.2 8.7 0.00 0.00 0.00 50 1013.1
20260906065503 83 157 5.2 9.6 0.00 0.00 0.00 50 1013.1
20260906065024 83 161 6.1 9.6 0.00 0.00 0.00 50 1013.1
20260906064503 83 161 5.2 9.6 0.00 0.00 0.00 49 1013.1
20260906064003 84 161 6.1 10.4 0.00 0.00 0.00 49 1013.1
20260906063503 84 161 6.1 10.4 0.00 0.00 0.00 49 1013.2
20260906063003 84 161 6.1 13.0 0.00 0.00 0.00 48 1013.2
20260906062503 84 162 6.1 13.0 0.00 0.00 0.00 48 1013.2
20260906062003 85 157 6.1 11.3 0.00 0.00 0.00 48 1013.2
20260906061503 85 155 6.1 10.4 0.00 0.00 0.00 48 1013.2
20260906061003 85 158 7.0 10.4 0.00 0.00 0.00 47 1013.2
20260906060503 85 158 7.0 11.3 0.00 0.00 0.00 47 1013.2
20260906060003 86 155 7.0 13.0 0.00 0.00 0.00 47 1013.3
20260906055503 86 154 7.0 13.0 0.00 0.00 0.00 47 1013.3
20260906055003 86 154 6.1 9.6 0.00 0.00 0.00 47 1013.3
20260906054524 86 155 6.1 10.4 0.00 0.00 0.00 47 1013.3
20260906054003 86 154 6.1 10.4 0.00 0.00 0.00 47 1013.3
20260906053503 85 149 5.2 9.6 0.00 0.00 0.00 47 1013.3
20260906053003 85 149 4.3 8.7 0.00 0.00 0.00 48 1013.3
20260906052524 85 145 3.5 7.8 0.00 0.00 0.00 48 1013.4
20260906052003 85 134 2.6 6.1 0.00 0.00 0.00 48 1013.5
20260906051524 85 129 3.5 7.8 0.00 0.00 0.00 48 1013.5
20260906051003 85 133 3.5 7.8 0.00 0.00 0.00 48 1013.5
20260906050503 85 128 3.5 7.0 0.00 0.00 0.00 48 1013.5
20260906050003 85 131 3.5 7.0 0.00 0.00 0.00 47 1013.6
20260906045503 85 147 4.3 7.8 0.00 0.00 0.00 47 1013.6
20260906045003 85 137 4.3 7.8 0.00 0.00 0.00 47 1013.6
20260906044503 86 125 3.5 7.8 0.00 0.00 0.00 47 1013.6
20260906044003 86 130 3.5 7.8 0.00 0.00 0.00 46 1013.7
20260906043503 86 126 3.5 7.8 0.00 0.00 0.00 46 1013.7
20260906043003 86 122 3.5 7.8 0.00 0.00 0.00 46 1013.7
20260906042524 86 126 3.5 7.0 0.00 0.00 0.00 46 1013.6
20260906042003 86 125 3.5 7.0 0.00 0.00 0.00 45 1013.6
20260906041503 86 115 3.5 7.8 0.00 0.00 0.00 45 1013.6
20260906041024 86 112 4.3 7.8 0.00 0.00 0.00 45 1013.6
20260906040503 86 111 4.3 7.0 0.00 0.00 0.00 45 1013.5
20260906040003 87 108 4.3 8.7 0.00 0.00 0.00 44 1013.5
20260906035503 87 115 4.3 8.7 0.00 0.00 0.00 44 1013.4
20260906035003 87 117 4.3 8.7 0.00 0.00 0.00 44 1013.4
20260906034503 87 109 6.1 8.7 0.00 0.00 0.00 43 1013.4
20260906034003 88 108 6.1 9.6 0.00 0.00 0.00 43 1013.4
20260906033503 88 110 6.1 10.4 0.00 0.00 0.00 43 1013.4
20260906033003 88 105 5.2 10.4 0.00 0.00 0.00 42 1013.3
20260906032503 88 104 5.2 8.7 0.00 0.00 0.00 42 1013.2
20260906032003 88 106 4.3 7.8 0.00 0.00 0.00 42 1013.1
20260906031524 88 109 4.3 7.8 0.00 0.00 0.00 42 1013.1
20260906031024 88 110 4.3 8.7 0.00 0.00 0.00 42 1013.0
20260906030503 88 111 4.3 8.7 0.00 0.00 0.00 41 1013.0
20260906030003 89 113 3.5 7.0 0.00 0.00 0.00 41 1012.8
20260906025503 89 111 3.5 7.8 0.00 0.00 0.00 41 1012.8
20260906025003 89 116 3.5 7.8 0.00 0.00 0.00 40 1012.6
20260906024503 89 123 2.6 7.0 0.00 0.00 0.00 40 1012.5
20260906024003 90 121 3.5 7.0 0.00 0.00 0.00 40 1012.5
20260906023503 90 119 3.5 7.0 0.00 0.00 0.00 40 1012.5
20260906023003 90 121 3.5 7.0 0.00 0.00 0.00 39 1012.5
20260906022503 90 114 2.6 6.1 0.00 0.00 0.00 39 1012.2
20260906022003 90 106 2.6 5.2 0.00 0.00 0.00 39 1012.1
20260906021503 90 112 2.6 7.0 0.00 0.00 0.00 39 1012.0
20260906021003 90 118 2.6 7.0 0.00 0.00 0.00 39 1012.0
20260906020503 91 121 2.6 5.2 0.00 0.00 0.00 38 1012.0
20260906020003 91 121 2.6 4.3 0.00 0.00 0.00 38 1011.9
20260906015503 91 122 2.6 4.3 0.00 0.00 0.00 38 1011.9
20260906015003 91 123 2.6 4.3 0.00 0.00 0.00 38 1011.9
20260906014524 91 123 2.6 4.3 0.00 0.00 0.00 38 1011.9
20260906014003 92 124 2.6 4.3 0.00 0.00 0.00 38 1011.8
20260906013503 92 126 2.6 4.3 0.00 0.00 0.00 38 1011.8
20260906013003 92 127 2.6 4.3 0.00 0.00 0.00 37 1011.5
20260906012503 92 128 2.6 6.1 0.00 0.00 0.00 37 1011.5
20260906012003 93 122 2.6 6.1 0.00 0.00 0.00 37 1011.3
20260906011503 93 109 3.5 7.0 0.00 0.00 0.00 36 1011.2
20260906011003 93 109 3.5 7.0 0.00 0.00 0.00 36 1011.1
20260906010503 94 113 3.5 6.1 0.00 0.00 0.00 36 1011.0
20260906010024 94 116 3.5 7.0 0.00 0.00 0.00 35 1011.1
20260906005503 94 118 4.3 9.6 0.00 0.00 0.00 35 1011.0
20260906005003 95 115 4.3 9.6 0.00 0.00 0.00 34 1011.0
20260906004503 95 115 4.3 9.6 0.00 0.00 0.00 34 1010.9
20260906004024 95 117 4.3 9.6 0.00 0.00 0.00 34 1010.9
20260906003503 96 126 5.2 8.7 0.00 0.00 0.00 33 1010.8
20260906003003 96 127 6.1 13.0 0.00 0.00 0.00 33 1010.8
20260906002503 96 120 6.1 13.0 0.00 0.00 0.00 33 1010.9
20260906002003 96 118 6.1 10.4 0.00 0.00 0.00 33 1010.9
20260906001524 96 122 6.1 10.4 0.00 0.00 0.00 33 1010.9
20260906001003 97 131 5.2 12.2 0.00 0.00 0.00 33 1010.9
20260906000503 97 117 6.1 12.2 0.00 0.00 0.00 33 1010.7
20260906000003 97 110 6.1 11.3 0.00 0.00 0.00 33 1010.7
20260905235503 97 119 6.1 10.4 0.00 0.00 0.00 33 1010.6
20260905235024 97 121 6.1 10.4 0.00 0.00 0.00 33 1010.5
20260905234503 97 128 6.1 13.0 0.00 0.00 0.00 32 1010.5
20260905234003 98 136 7.0 14.8 0.00 0.00 0.00 32 1010.5
20260905233524 98 125 6.1 14.8 0.00 0.00 0.00 32 1010.6
20260905233003 97 108 6.1 11.3 0.00 0.00 0.00 32 1010.5
20260905232503 98 111 5.2 13.0 0.00 0.00 0.00 32 1010.5
20260905232003 98 120 6.1 13.0 0.00 0.00 0.00 32 1010.6
20260905231524 98 124 7.0 12.2 0.00 0.00 0.00 32 1010.5
20260905231003 98 122 6.1 12.2 0.00 0.00 0.00 32 1010.4
20260905230503 98 114 7.0 14.8 0.00 0.00 0.00 32 1010.4
20260905230024 98 112 7.8 14.8 0.00 0.00 0.00 31 1010.4
20260905225503 98 113 7.0 13.9 0.00 0.00 0.00 31 1010.4
20260905225003 98 117 6.1 11.3 0.00 0.00 0.00 31 1010.4
20260905224524 98 132 7.0 14.8 0.00 0.00 0.00 31 1010.4
20260905224024 98 150 7.0 14.8 0.00 0.00 0.00 32 1010.5
20260905223503 98 144 5.2 11.3 0.00 0.00 0.00 32 1010.5
20260905223003 98 129 6.1 12.2 0.00 0.00 0.00 32 1010.6
20260905222524 98 114 7.0 12.2 0.00 0.00 0.00 32 1010.5
20260905222024 98 103 7.0 13.9 0.00 0.00 0.00 32 1010.6
20260905221524 98 110 6.1 13.9 0.00 0.00 0.00 32 1010.6
20260905221003 98 119 5.2 10.4 0.00 0.00 0.00 31 1010.6
20260905220503 98 128 6.1 14.8 0.00 0.00 0.00 32 1010.6
20260905220003 98 134 6.1 14.8 0.00 0.00 0.00 32 1010.8
20260905215503 98 123 5.2 11.3 0.00 0.00 0.00 32 1010.8